Wind_Speed
20 22 25 27 29 31 34 36 36 33 27 20 16 15 13 10 9 8 8 7 8 9 9 9 9 8 6 3 0 2 2 3 5 6 8 9 11 13 14 14 15 14 13 12 12 13 14 14 14 14 14 16 17 18 20 21 22 23 25 25 26 26 27 28 31 34 36 38 40 40 39 39 41 42 42 42 41 41 41 41 42 42 42 40 38 38 39
18 20 24 26 27 29 31 33 34 33 30 24 19 17 16 12 9 8 8 7 7 8 7 6 6 6 5 3 1 1 2 2 3 5 7 8 9 11 11 12 12 12 12 11 11 12 12 13 13 13 13 14 15 17 18 20 21 23 25 26 27 29 29 30 33 36 38 39 40 40 39 39 41 42 43 44 42 41 41 41 42 42 42 41 40 41 41
16 18 22 24 25 27 29 31 32 32 32 28 23 21 19 15 11 9 8 8 8 8 8 6 6 6 5 4 3 3 2 2 2 4 6 7 8 8 8 9 10 11 11 11 12 12 12 13 13 14 15 15 16 17 18 20 21 22 24 26 27 29 30 32 35 40 42 42 42 41 40 40 41 41 43 45 45 43 42 43 43 42 43 43 42 44 43
15 16 19 22 24 25 27 28 29 30 31 30 26 23 20 16 12 9 8 8 9 9 9 9 8 6 6 6 6 6 5 4 4 4 6 7 8 8 8 9 10 11 11 12 13 14 15 16 16 17 18 18 19 20 20 21 23 23 24 26 27 29 30 31 34 41 45 46 45 44 43 43 44 43 44 46 47 46 44 44 44 44 43 44 45 46 45
15 15 17 20 22 24 25 27 27 28 29 29 27 25 22 18 14 12 10 10 9 9 9 10 10 9 7 7 7 8 8 7 7 8 8 9 10 10 11 11 12 12 13 14 16 17 18 19 20 21 22 23 23 24 24 24 25 26 27 27 28 29 30 30 32 38 44 48 48 47 47 47 47 46 46 47 48 47 46 45 45 46 45 45 46 47 46
14 14 16 18 20 22 24 25 26 26 27 27 26 25 24 21 18 16 14 12 11 10 10 10 10 9 9 8 8 8 9 10 10 10 11 12 12 12 13 13 15 15 16 17 18 20 21 22 23 23 24 25 26 27 27 28 29 29 30 31 31 32 32 32 33 35 39 47 51 51 50 49 48 48 48 49 49 48 48 48 48 48 47 47 47 47 47
14 14 15 16 19 21 22 24 24 25 26 25 24 25 25 24 21 19 16 15 13 12 12 12 11 10 10 10 9 9 10 11 11 12 13 13 13 14 15 16 17 18 19 19 20 21 22 23 24 25 26 26 27 28 29 29 31 32 33 34 35 35 36 36 37 37 37 42 50 54 53 51 50 50 50 51 51 50 50 51 51 50 49 48 47 47 47
13 14 14 15 17 19 21 22 23 23 24 23 23 24 24 23 22 21 19 18 17 15 15 14 12 11 11 11 10 10 10 11 12 12 14 14 15 16 17 17 18 18 19 20 20 21 22 23 24 24 25 26 26 28 29 30 31 33 34 36 37 38 39 40 41 41 41 41 45 51 56 55 53 52 52 53 54 53 52 53 54 53 51 50 48 47 48
13 14 14 15 16 18 19 21 22 22 22 21 22 23 23 22 22 21 21 20 20 18 17 16 14 13 12 11 11 11 11 12 12 13 14 15 15 15 16 16 16 16 17 18 19 19 20 20 20 20 21 22 22 23 24 26 27 29 31 33 35 38 40 42 43 44 45 45 44 47 53 58 57 55 54 55 56 56 55 55 56 56 53 52 50 49 49
13 13 14 15 15 17 18 20 21 21 21 20 20 21 21 20 20 20 20 20 21 20 19 18 17 17 15 14 13 12 12 11 11 11 12 13 14 14 14 14 14 15 16 18 18 18 17 17 17 18 18 18 18 18 19 20 21 23 25 26 29 31 34 38 42 44 45 47 48 48 50 54 59 60 58 57 57 58 58 57 57 57 56 54 53 53 52
13 13 14 15 15 16 18 19 19 19 19 19 19 19 19 19 19 19 19 19 20 20 20 19 19 18 18 17 16 15 14 12 11 10 10 10 10 11 11 12 13 14 16 17 16 15 15 15 16 17 17 17 17 16 16 17 18 20 21 22 23 25 26 29 34 39 41 43 47 50 50 51 55 61 63 61 60 60 60 59 59 59 58 58 57 56 56
12 13 14 14 14 15 17 18 18 18 18 18 18 18 18 18 17 18 18 18 18 18 19 19 18 18 18 19 19 19 18 17 15 11 8 7 7 7 9 11 13 14 15 15 14 13 14 14 15 15 16 16 16 15 15 16 17 17 18 19 21 22 23 24 26 30 33 36 42 49 51 50 53 58 63 66 65 62 62 63 62 61 60 60 60 59 59
12 12 13 14 14 15 16 17 17 17 17 17 17 17 17 17 17 16 16 16 16 17 17 18 18 18 18 19 19 20 20 20 20 18 13 9 6 7 9 11 13 15 15 13 12 12 12 12 12 12 13 14 14 14 14 15 15 15 15 17 19 21 23 24 25 27 28 30 35 42 48 50 52 55 60 65 68 67 65 64 64 64 62 62 63 63 62
11 12 13 14 14 14 15 16 16 16 16 15 16 17 17 17 17 16 16 15 15 15 16 16 17 18 18 18 18 19 20 20 20 20 18 15 11 10 10 11 12 13 12 10 11 11 10 10 9 9 11 13 13 14 14 13 13 14 14 16 18 20 22 24 25 27 28 28 29 34 40 46 50 53 56 61 66 70 70 68 66 67 65 64 65 66 65
11 11 12 13 13 13 14 15 15 15 15 15 15 16 17 17 17 16 16 15 15 14 14 15 16 17 17 17 17 17 18 18 19 19 20 19 17 15 13 12 10 8 9 11 11 10 9 8 7 8 9 10 11 12 12 12 13 14 15 17 18 19 21 23 25 27 28 29 27 27 32 39 42 43 49 56 61 67 73 74 70 69 68 67 67 68 68
10 11 11 12 13 13 13 14 14 14 14 14 14 15 16 16 16 16 16 15 15 15 14 14 14 15 15 16 16 17 17 18 18 18 19 19 19 18 16 14 9 7 11 11 10 10 9 8 8 8 9 9 10 12 13 14 16 17 18 19 20 22 22 23 24 26 27 29 29 27 28 32 33 34 40 48 55 60 69 75 76 73 71 70 70 70 70
10 10 10 11 12 12 13 13 14 14 14 14 13 14 15 15 16 16 16 15 15 15 14 14 13 14 14 15 16 16 17 18 18 18 18 19 19 19 18 16 11 6 12 14 12 10 10 10 11 11 12 13 14 15 17 19 21 22 23 24 24 24 25 25 25 25 26 28 29 28 28 31 32 31 33 39 47 53 61 70 76 77 75 73 72 72 72
9 10 10 10 12 12 13 13 13 14 14 14 13 14 14 15 15 16 16 15 15 14 14 14 14 14 14 15 16 16 16 17 17 17 18 18 19 19 19 17 15 9 9 15 16 14 13 14 15 16 16 16 17 19 20 22 24 25 27 29 29 28 27 27 26 26 25 26 28 29 30 32 33 32 32 34 40 47 55 63 72 77 79 78 76 75 75
9 9 9 10 11 12 12 13 13 13 13 13 13 14 14 14 15 16 15 15 14 14 14 14 14 14 14 14 15 16 16 16 16 17 17 17 17 18 19 18 17 14 7 9 15 16 16 17 18 19 18 18 19 20 20 21 22 22 24 26 28 28 27 26 26 25 24 25 26 28 29 31 32 33 34 34 38 44 50 56 64 72 79 83 81 79 77
9 9 9 9 10 11 12 12 13 13 12 12 13 13 13 14 15 16 16 16 15 14 14 14 14 14 14 14 14 14 14 15 16 16 16 16 15 16 16 16 16 14 9 5 9 13 15 16 16 17 17 17 17 17 17 17 17 17 17 18 20 22 23 24 24 24 23 22 23 24 25 27 29 31 32 34 36 40 43 47 55 64 74 81 85 84 81
9 9 9 9 10 10 11 12 12 12 12 12 12 12 13 13 14 15 17 17 16 15 14 14 15 15 14 14 14 14 14 15 15 15 15 15 15 15 14 14 13 13 10 5 5 9 10 11 12 12 13 13 13 13 14 14 14 14 14 14 14 16 18 20 21 21 21 20 19 19 20 23 25 27 29 31 33 35 37 40 46 55 65 74 82 86 86
9 9 9 9 9 9 10 11 11 12 12 12 12 13 13 13 14 15 16 17 16 15 14 14 15 15 15 15 14 14 15 16 16 16 15 15 16 15 14 13 11 10 10 7 5 6 7 8 9 9 10 10 11 12 13 14 15 14 14 13 13 13 14 15 16 18 17 16 16 17 18 20 24 26 27 29 30 31 32 35 39 46 57 67 75 82 87
9 9 9 9 9 9 9 10 10 11 11 11 12 13 13 13 13 15 16 17 16 15 14 14 15 15 15 15 15 15 16 17 17 17 16 16 16 17 16 15 12 10 9 8 7 7 7 8 9 10 10 11 12 12 13 14 14 13 13 13 13 13 12 12 13 14 14 13 15 16 17 19 22 25 27 29 30 32 32 33 34 39 48 59 68 75 82
8 9 9 9 9 9 9 9 10 10 10 11 12 13 13 13 13 14 15 17 18 16 13 13 14 15 15 15 14 15 17 19 20 18 16 16 16 17 17 17 16 13 12 10 9 9 10 10 11 11 11 12 12 13 13 13 14 14 13 12 13 13 13 12 12 12 12 13 15 16 16 18 20 23 25 27 29 31 33 34 34 36 40 49 60 69 76
8 8 8 8 9 9 9 10 10 10 10 10 11 13 13 13 13 13 14 16 18 18 15 12 11 13 15 16 14 14 16 19 21 21 19 16 15 16 17 18 18 17 16 15 14 13 12 12 12 11 11 12 12 12 13 13 14 15 14 12 12 13 13 13 13 12 11 12 14 15 16 18 19 20 22 24 27 30 32 34 35 36 37 41 49 60 69
8 8 8 8 8 9 9 10 11 11 10 10 11 13 13 13 13 14 14 15 16 18 18 16 13 12 14 16 16 15 15 17 20 22 21 19 17 16 16 17 18 19 19 18 18 18 17 16 14 13 13 12 11 11 12 12 12 14 14 12 11 12 13 13 13 13 13 12 12 12 14 17 19 20 22 23 25 28 31 34 36 38 38 39 42 49 60
7 8 8 8 8 9 9 11 12 12 11 11 12 13 13 13 14 14 14 15 15 16 17 18 16 14 14 15 17 18 17 17 17 19 21 21 20 18 17 17 18 19 19 20 20 21 21 21 19 17 17 16 15 13 13 12 11 12 14 13 12 12 12 13 13 14 14 13 12 12 13 15 17 18 20 22 25 27 30 33 36 39 40 42 42 44 49
8 8 7 8 9 9 10 11 12 12 12 11 12 14 14 14 14 15 15 15 15 16 17 17 17 16 17 18 19 20 21 21 20 19 20 20 20 21 20 19 19 18 18 19 21 22 23 23 23 22 21 21 20 18 16 14 13 13 13 14 14 13 13 12 13 13 14 14 14 13 14 15 16 17 17 19 21 24 28 32 36 39 41 43 45 46 47
8 8 8 8 9 9 10 11 12 12 12 12 13 14 15 15 15 15 15 14 15 16 18 19 18 18 18 21 22 22 23 23 22 21 21 21 19 20 21 21 21 20 20 19 19 20 22 23 24 25 25 24 23 21 19 18 17 17 16 15 15 16 15 14 14 14 14 14 14 15 15 16 17 18 18 18 19 19 22 26 31 36 39 42 45 47 49
8 8 8 8 9 9 10 12 13 13 12 12 13 15 16 16 17 17 16 15 15 16 18 19 19 19 19 20 22 22 23 24 23 23 23 22 21 19 19 19 20 20 21 21 20 20 21 22 24 26 28 28 26 24 22 20 19 20 21 18 17 18 17 16 16 15 16 16 16 16 16 16 17 19 20 20 20 20 21 21 24 29 33 38 42 45 48
8 8 8 8 9 10 11 12 13 13 13 12 13 15 15 16 17 18 18 17 16 17 17 17 18 19 20 22 22 22 23 24 25 25 25 24 22 21 19 19 20 21 21 21 21 23 23 23 24 27 29 29 28 27 25 21 19 21 23 21 19 20 19 18 17 16 16 18 19 19 19 18 18 18 20 22 22 22 22 22 22 24 27 31 36 40 43
8 8 9 9 9 9 11 13 14 14 14 13 14 15 16 16 18 19 18 18 17 17 17 17 17 18 21 24 24 24 25 26 27 27 25 24 23 23 22 22 23 23 23 24 25 24 22 23 25 27 27 28 28 29 29 24 20 22 25 24 22 22 21 19 18 17 16 18 20 21 22 21 20 19 20 22 24 24 24 24 24 23 25 27 30 34 38
8 8 9 9 9 9 11 13 14 15 14 15 15 16 16 18 19 19 19 19 18 18 19 19 19 19 21 24 25 25 27 28 27 26 25 25 25 25 25 25 25 25 25 27 27 26 24 24 26 27 27 27 28 31 32 28 23 24 26 24 23 24 22 20 19 18 17 18 20 21 22 22 22 22 21 22 24 25 25 25 25 24 24 25 27 29 33
8 9 9 9 9 10 11 13 15 15 15 16 17 17 17 19 20 20 20 20 20 20 21 21 21 21 22 24 26 26 26 27 27 27 28 28 28 27 26 26 25 25 26 27 27 28 29 29 28 28 28 28 28 30 30 26 24 26 26 24 24 26 24 21 19 18 18 20 21 21 21 21 22 24 24 24 25 25 26 26 25 24 25 26 26 27 29
8 9 9 9 9 10 11 14 15 16 16 17 17 17 18 19 20 20 21 21 22 22 22 22 24 25 24 24 25 26 26 27 29 31 31 31 31 29 26 23 23 25 27 28 29 30 31 30 29 28 27 26 27 28 27 24 24 25 26 26 27 27 25 21 19 18 19 20 22 22 22 22 22 23 25 27 27 26 27 27 26 24 24 25 27 27 27
8 9 9 10 10 10 12 14 16 16 17 18 18 18 19 20 20 20 21 23 23 23 22 24 28 29 28 26 25 25 27 30 33 34 32 31 30 27 24 23 25 28 28 26 26 27 27 27 26 26 25 24 25 25 24 22 20 20 23 28 29 26 22 20 18 18 19 20 21 21 21 22 22 23 25 27 28 27 27 27 27 26 24 23 25 26 26
8 9 9 10 10 11 12 14 15 16 17 18 19 19 20 21 22 23 24 24 24 24 24 27 30 32 29 27 26 27 31 34 35 33 31 29 28 27 26 27 28 28 25 22 22 24 25 24 22 21 22 23 23 22 21 19 17 17 23 27 25 20 18 17 17 18 19 19 20 19 19 20 21 22 24 27 28 28 27 27 27 27 25 23 22 23 24
9 9 10 10 11 12 13 14 15 16 17 18 19 20 21 21 22 23 24 24 24 24 25 28 31 31 28 26 27 31 34 35 34 31 30 29 28 27 27 26 25 23 21 20 22 23 23 22 20 19 19 19 19 19 19 18 18 20 23 21 17 14 15 16 16 17 18 18 17 17 17 18 20 23 26 29 29 28 27 27 27 26 24 22 20 19 20
9 9 10 11 12 12 14 15 16 17 18 19 20 20 21 21 21 22 23 24 24 24 26 28 30 29 26 26 30 34 36 34 32 30 29 28 27 26 25 24 22 21 21 21 22 22 19 18 17 18 18 18 18 17 19 20 21 20 18 14 11 12 14 15 15 16 16 16 16 16 17 19 22 25 28 31 31 29 27 26 26 25 23 20 17 16 16
9 9 10 11 12 13 14 15 16 17 18 19 20 21 21 21 22 22 23 23 23 25 27 29 28 27 27 29 33 35 34 32 30 29 28 28 27 25 23 23 22 22 21 21 21 19 16 16 16 17 18 18 18 18 19 19 18 15 11 10 12 13 13 13 14 15 15 15 16 17 18 20 23 27 31 32 31 28 25 24 24 23 21 19 17 15 15
9 9 10 11 12 14 15 15 17 18 19 20 21 21 21 21 22 22 23 24 25 26 28 29 29 29 30 32 34 33 31 29 29 28 28 27 26 24 23 22 22 22 21 20 18 17 16 17 17 16 16 17 17 17 18 18 17 14 12 12 13 12 12 13 14 14 15 16 17 18 20 22 25 29 32 32 30 26 23 22 22 21 19 17 16 14 13
9 10 10 11 12 14 15 16 17 18 20 21 22 21 20 21 22 23 24 26 27 28 29 30 31 31 31 32 33 31 29 28 28 27 27 26 26 25 24 23 22 21 21 20 19 19 19 18 17 16 15 16 16 16 17 18 19 18 16 14 13 12 13 13 14 15 16 18 19 20 22 25 27 30 32 31 28 25 22 20 19 18 16 14 11 8 6
9 10 11 11 12 14 15 16 18 19 20 21 21 20 20 22 23 24 26 28 29 30 30 31 31 31 31 32 31 29 27 27 27 27 27 26 26 26 26 24 22 21 21 21 20 20 21 20 19 18 17 16 15 16 17 18 19 19 17 15 14 13 13 13 14 15 17 18 20 22 24 26 29 30 29 28 26 24 21 19 17 15 14 12 10 7 4
10 11 11 11 13 14 16 17 18 19 20 21 21 21 22 23 25 26 28 30 31 32 32 31 31 31 31 30 29 27 27 27 27 28 27 27 27 27 27 26 25 23 22 21 20 19 20 21 21 20 18 17 17 17 17 16 16 18 19 17 16 15 14 13 14 16 17 18 21 23 25 27 28 28 26 26 25 23 20 18 16 14 12 11 11 12 11
10 11 11 12 14 15 16 18 19 19 20 21 21 21 22 24 25 27 29 31 32 32 32 31 31 31 30 29 27 27 27 28 28 28 28 27 27 28 28 27 27 26 24 23 22 22 23 23 22 21 19 18 18 18 16 14 14 17 19 18 17 16 16 17 17 17 18 19 21 24 26 27 26 25 24 25 24 22 19 17 15 13 11 10 11 13 13
10 11 12 13 14 16 18 19 19 19 19 19 20 21 22 23 25 27 30 31 32 32 31 31 31 30 29 28 28 28 28 29 29 29 29 28 28 28 28 28 27 27 26 26 25 25 25 24 24 23 22 21 20 20 19 17 16 19 20 19 18 19 20 20 19 18 18 20 22 24 25 24 23 22 23 24 23 20 17 15 14 13 11 9 11 14 16
10 11 12 14 15 17 18 19 19 19 19 19 20 22 23 24 26 29 31 32 33 33 32 31 31 31 30 29 28 28 29 30 30 29 29 30 29 29 30 29 28 28 28 28 27 27 26 26 26 26 26 26 25 25 24 21 19 21 22 22 22 22 22 20 19 18 19 20 21 22 22 21 20 20 21 22 21 18 15 14 13 12 10 8 10 14 18
10 11 13 14 16 17 17 18 19 19 20 21 22 24 24 25 28 30 32 33 34 34 33 32 31 30 29 29 29 29 29 30 30 30 31 31 31 31 31 31 31 31 30 30 29 29 29 28 28 29 29 29 28 28 27 25 24 25 25 24 24 23 21 19 18 19 19 19 19 20 19 19 18 18 20 21 18 15 14 13 12 11 9 8 8 11 15
11 12 14 15 16 16 16 17 17 18 19 21 24 25 25 27 29 30 32 34 35 34 32 31 30 29 29 29 30 30 30 30 31 31 32 33 34 34 34 34 34 34 33 32 32 32 31 31 31 31 31 31 30 28 27 26 27 26 25 25 25 23 19 17 18 18 17 17 17 17 16 16 15 16 18 19 16 14 13 13 12 11 9 8 7 9 13
12 13 14 15 15 15 16 16 17 18 19 21 24 25 26 28 29 31 33 34 34 32 31 30 29 29 29 30 31 31 31 31 32 33 34 35 36 37 37 37 37 36 35 35 35 34 34 33 34 33 33 33 32 30 27 25 25 23 22 23 26 25 20 17 16 14 13 14 14 14 12 13 13 15 16 17 15 14 13 13 12 11 9 8 7 7 11
12 13 14 15 15 15 15 17 19 20 21 23 24 25 27 28 30 32 34 34 32 31 30 30 29 30 30 31 31 32 33 33 34 35 36 37 38 39 40 40 40 39 38 37 36 35 36 36 37 36 35 34 33 30 26 24 23 21 20 22 26 27 23 18 14 12 10 11 11 10 9 11 12 13 14 15 15 14 13 13 12 11 9 8 7 6 7
12 13 14 14 14 14 15 18 20 21 22 24 25 26 27 29 31 33 33 32 30 29 29 28 29 30 31 31 32 33 34 35 36 37 38 39 41 41 42 42 42 41 40 38 37 37 38 38 38 37 36 34 32 28 24 22 22 21 19 20 24 27 24 18 14 10 9 10 10 8 8 10 12 13 13 14 14 14 14 14 13 10 9 8 7 6 5
Wind_Direction
354 359 3 5 6 7 11 12 11 11 9 5 2 4 1 349 340 334 332 343 354 356 9 23 23 23 29 39 40 252 228 186 191 203 205 207 211 216 217 220 224 228 229 225 217 214 213 211 210 211 210 213 216 215 215 216 218 219 220 220 218 215 211 207 206 210 214 215 217 220 219 218 216 215 217 219 220 221 220 222 225 224 220 216 212 215 219
353 358 2 4 5 7 11 12 12 13 14 12 10 9 4 353 338 328 321 319 325 333 348 7 9 4 4 15 17 273 250 195 175 187 193 195 201 207 210 215 222 225 225 222 217 216 219 218 217 218 218 219 220 220 218 219 220 222 223 222 220 217 213 207 203 206 211 213 215 218 218 218 217 216 216 217 218 219 218 218 221 223 221 217 212 213 215
351 357 0 3 4 7 10 11 11 13 16 17 18 16 11 2 349 334 324 315 309 311 316 322 333 342 338 336 338 315 285 258 207 196 198 201 202 203 202 205 213 219 224 230 232 232 233 234 233 234 234 233 232 230 227 226 224 225 227 227 225 223 219 212 205 204 207 209 211 214 215 215 215 215 215 216 216 216 216 215 217 219 220 218 214 214 213
349 354 358 1 2 6 10 11 11 13 16 20 23 21 17 13 3 350 336 323 311 305 303 303 309 319 321 317 311 302 295 286 268 245 230 226 224 224 223 222 223 226 231 240 246 248 249 249 248 247 246 245 244 242 240 238 236 233 232 232 231 230 226 219 212 207 206 207 210 213 214 213 214 214 214 216 216 216 216 216 216 217 219 219 217 216 213
347 350 355 358 360 3 9 10 10 11 14 20 25 24 22 21 17 10 359 347 335 325 316 308 304 304 304 306 302 293 288 283 273 264 257 251 246 245 246 245 244 244 245 248 252 255 256 256 255 254 254 253 252 250 249 247 246 244 242 240 238 237 234 230 223 215 210 209 210 212 213 213 214 214 215 216 217 217 217 218 218 217 218 219 220 219 214
345 347 351 355 357 1 6 7 7 9 12 19 25 24 23 25 25 21 13 3 356 349 341 330 322 316 311 310 306 294 285 279 273 267 263 261 258 257 256 255 254 254 255 256 257 259 259 259 259 258 258 257 256 255 254 253 252 250 249 247 245 243 241 237 234 227 218 213 212 212 213 214 215 215 215 216 217 217 217 218 218 217 216 219 222 222 217
343 344 347 350 352 357 2 3 4 6 9 17 23 21 20 23 27 26 20 13 10 5 357 349 340 333 326 321 315 301 288 280 274 270 266 264 262 260 260 259 258 259 260 261 261 262 262 262 262 261 261 261 260 259 258 256 255 254 253 251 249 248 246 243 240 237 229 220 216 215 216 216 216 216 216 216 217 217 216 216 217 217 216 217 220 222 220
341 343 344 345 346 351 358 358 359 3 6 12 19 19 17 18 22 24 23 21 21 17 8 360 349 339 329 321 315 305 295 287 281 276 272 269 267 265 265 265 264 264 264 263 262 262 262 262 263 263 264 264 264 263 263 261 260 259 258 256 253 251 250 247 245 242 238 230 223 219 218 218 217 217 217 217 217 217 216 216 217 216 215 215 217 220 220
339 341 342 343 342 346 353 353 353 358 1 6 14 16 14 13 15 18 21 23 24 23 20 15 9 1 351 341 330 318 307 298 291 283 275 272 271 269 269 269 267 265 262 261 261 261 260 260 260 261 261 262 262 263 263 263 263 263 263 261 259 256 254 251 249 246 243 238 231 225 221 220 219 218 218 218 218 218 217 217 217 216 215 215 216 217 218
339 341 341 341 342 344 348 349 349 353 356 2 11 13 11 9 10 13 17 20 22 23 26 27 25 23 18 10 360 347 333 320 306 293 282 274 269 266 266 265 264 262 258 258 258 257 254 254 254 254 252 251 252 255 259 263 266 267 267 266 264 262 259 256 253 250 248 244 238 232 226 222 220 219 219 220 219 219 218 218 218 217 215 214 213 214 215
338 341 340 340 343 346 347 346 346 349 352 359 9 11 7 5 5 6 10 15 18 20 23 28 30 30 28 24 20 13 3 353 337 314 295 283 276 272 268 263 260 257 255 257 258 250 243 245 248 248 244 242 244 250 259 265 267 268 268 267 266 265 263 261 257 253 252 249 243 237 231 225 222 221 220 220 220 219 218 219 219 218 216 214 213 213 215
336 341 342 340 343 349 348 344 344 347 350 357 7 9 5 3 3 3 4 8 12 15 18 24 27 28 28 25 22 20 17 16 11 357 332 311 299 288 276 268 264 260 260 264 259 242 234 239 245 244 241 239 242 250 260 265 266 267 267 266 265 265 264 265 263 258 255 252 248 241 234 229 226 224 221 221 220 219 218 218 219 219 218 216 214 213 214
334 341 342 341 345 351 348 344 344 346 348 356 6 7 4 2 1 0 360 0 4 7 11 16 20 22 24 23 19 17 18 20 21 19 13 1 338 312 296 287 281 275 269 260 241 227 231 242 244 242 240 239 242 251 260 265 267 267 266 265 265 265 265 264 264 263 260 257 252 244 237 233 231 227 223 222 221 220 218 217 218 220 220 218 216 214 215
331 339 342 342 346 351 349 345 344 345 346 355 5 6 3 2 0 357 356 355 357 360 2 6 11 14 16 18 17 14 14 17 20 22 22 19 7 343 324 312 298 281 258 225 207 215 236 246 241 235 237 240 247 255 261 266 270 270 269 268 267 266 267 266 264 263 262 261 258 249 240 236 234 231 227 224 222 221 220 218 218 219 220 219 217 215 215
328 335 340 341 344 350 350 346 344 344 345 353 4 6 3 1 359 355 353 352 352 353 355 359 3 4 5 8 11 11 11 12 16 18 18 17 13 2 345 332 313 267 217 196 202 220 235 239 235 228 230 240 253 263 268 270 273 274 274 274 274 272 270 269 267 265 262 261 260 255 246 240 237 236 233 229 225 222 221 219 218 218 219 219 219 217 216
326 332 338 340 341 347 349 346 343 344 344 351 2 5 3 1 359 355 353 351 349 349 350 352 354 354 352 355 359 4 5 5 9 14 14 13 12 8 359 348 325 249 211 206 217 225 227 233 242 247 252 258 265 272 277 277 275 274 273 273 275 277 277 275 273 269 265 261 258 255 252 246 242 239 237 234 229 226 223 221 219 218 219 218 219 219 217
324 329 335 339 339 344 347 345 343 342 342 348 359 2 1 1 360 356 354 352 349 346 344 344 346 345 344 345 348 352 356 357 359 4 8 8 7 7 5 359 345 277 229 225 228 230 232 241 251 260 268 274 277 279 280 280 280 281 280 278 277 277 278 278 277 274 270 265 260 254 252 250 246 241 238 238 235 230 226 223 219 219 220 219 218 218 219
320 326 333 338 338 341 343 343 342 341 340 345 354 357 358 359 360 358 356 352 348 345 343 341 341 340 340 341 340 341 344 347 348 351 357 360 1 2 3 4 0 339 256 233 232 237 242 249 257 264 270 274 277 277 277 279 283 286 287 286 284 281 278 277 278 276 272 267 263 256 250 250 249 243 238 238 239 236 230 225 220 219 220 221 220 219 218
316 322 330 335 336 338 340 340 340 340 338 342 350 352 352 355 357 357 356 353 350 348 345 343 340 338 337 337 336 335 334 334 334 338 345 350 352 355 358 2 4 358 323 246 234 239 246 253 259 263 267 269 271 273 276 281 287 289 288 286 283 282 280 278 278 277 273 268 265 259 252 249 249 245 237 234 239 240 234 227 223 220 220 220 222 222 219
311 318 325 332 334 335 337 336 337 338 337 341 347 348 347 350 353 354 354 354 352 351 349 346 341 337 334 332 331 330 327 324 322 324 331 337 342 345 349 356 3 2 350 289 239 237 242 248 254 258 263 268 273 277 282 289 297 303 301 293 285 281 281 281 280 279 276 272 269 264 256 250 247 244 238 234 237 242 240 234 228 224 222 221 222 223 223
307 314 321 327 331 334 334 334 335 335 335 340 345 345 343 345 348 351 352 351 351 351 350 348 344 341 338 335 331 327 324 321 319 319 320 324 328 333 336 343 354 0 356 331 266 247 246 250 257 262 270 276 281 284 289 297 307 317 320 314 302 291 284 283 283 281 279 278 277 270 259 250 245 241 238 236 238 242 244 242 236 229 225 223 222 223 224
302 310 316 322 328 332 332 332 333 333 333 339 343 343 341 341 342 346 348 349 349 349 348 348 349 351 350 344 337 332 328 324 322 321 319 316 317 321 322 324 333 345 349 342 309 276 268 269 273 276 283 288 290 292 297 303 310 318 323 325 323 312 298 288 285 284 283 281 278 273 261 250 244 240 237 236 239 241 243 244 242 236 231 227 225 224 224
298 307 313 318 324 329 331 331 332 330 331 337 341 340 339 338 337 340 343 346 347 347 346 345 348 355 358 351 343 338 336 332 329 326 321 317 314 313 311 310 312 316 321 322 314 300 293 290 289 290 292 296 299 302 304 306 309 314 318 323 329 330 323 310 299 292 289 281 273 271 266 256 249 245 242 240 241 242 242 242 243 241 236 232 228 226 226
294 304 309 314 321 326 329 330 330 329 329 335 338 338 337 336 334 333 337 341 343 346 350 348 344 348 355 353 344 338 336 336 334 331 325 318 314 311 306 303 303 303 300 297 295 294 294 293 295 298 301 303 304 305 306 308 312 317 321 325 326 328 331 330 323 313 300 285 275 270 267 263 259 254 251 248 245 244 243 241 241 241 240 237 233 230 228
292 301 304 310 317 322 326 328 329 326 328 335 338 336 336 335 331 328 330 334 338 341 346 351 348 344 347 350 345 338 335 334 332 331 327 320 313 310 305 301 299 298 295 292 289 286 284 282 283 287 294 298 301 302 306 311 314 318 325 331 329 325 327 330 331 331 322 303 287 277 270 267 265 261 257 254 250 248 246 244 242 242 241 240 237 234 231
288 296 299 306 313 318 322 326 327 325 327 335 338 336 335 334 331 327 324 326 331 334 337 343 345 341 341 345 345 343 341 336 329 326 324 321 315 309 304 299 296 294 292 291 289 286 284 280 277 278 282 286 290 295 301 308 313 316 324 334 335 329 328 328 326 327 327 319 307 295 284 278 273 268 264 259 254 250 248 247 246 244 243 242 241 238 235
285 292 295 301 309 314 319 322 324 323 326 334 338 336 334 334 333 329 323 320 322 325 328 333 337 334 331 332 336 339 340 338 333 327 322 317 312 308 306 303 298 294 290 287 285 285 284 281 277 276 277 278 279 283 289 297 306 310 315 324 331 331 330 330 327 324 322 319 315 309 300 292 286 279 272 266 260 254 251 249 248 247 245 244 243 242 240
282 287 290 297 304 310 315 319 322 322 325 331 335 334 334 335 334 332 327 321 317 317 320 324 329 330 325 324 327 329 328 329 330 328 323 317 308 304 307 308 305 301 293 285 282 282 282 281 279 278 276 274 272 273 276 283 293 301 305 311 317 322 326 329 329 327 324 319 314 309 304 299 297 293 286 279 272 265 257 251 248 247 246 245 244 243 243
279 284 287 294 301 307 312 316 319 321 324 327 329 331 333 335 334 332 330 324 318 317 318 322 328 330 326 323 323 323 321 322 324 324 323 319 309 302 301 302 303 303 297 290 285 283 282 284 285 282 280 276 273 269 267 269 277 286 290 296 303 307 312 319 323 324 324 322 316 312 307 301 300 298 296 295 294 288 277 264 253 247 246 245 244 243 242
278 282 284 291 299 306 311 315 317 320 323 324 324 327 332 333 331 331 331 328 324 322 321 322 327 331 327 321 319 318 318 320 322 321 321 319 313 306 298 291 291 294 294 292 291 290 292 295 292 285 281 277 274 270 266 263 268 274 276 281 290 296 298 304 310 313 318 320 319 315 312 308 305 303 301 300 301 302 299 287 268 254 248 245 243 243 242
278 282 283 288 297 306 311 313 314 317 321 321 320 323 328 329 327 328 330 329 325 322 319 318 323 329 330 326 322 319 319 321 322 321 321 320 316 311 302 292 286 286 288 289 288 288 294 299 297 290 283 277 273 272 268 262 262 266 266 266 276 286 290 294 296 299 307 314 316 316 314 312 310 308 307 306 304 303 303 299 285 268 257 250 246 243 242
279 283 285 288 297 306 311 312 313 315 319 318 316 319 324 326 325 325 326 325 321 317 314 312 315 322 327 327 324 321 321 321 320 318 320 320 317 312 307 303 297 292 291 292 288 284 289 295 296 293 287 279 274 274 273 268 264 263 262 260 263 273 282 290 291 291 296 304 309 310 309 310 313 312 310 309 307 304 302 301 294 280 266 258 253 248 245
281 285 288 291 298 305 309 311 312 315 318 318 316 318 322 324 324 325 326 325 323 319 316 314 312 313 317 321 321 320 320 320 317 315 316 318 316 310 305 301 297 295 295 296 292 288 291 296 294 291 287 281 275 275 278 277 269 262 260 258 258 263 273 284 289 290 294 299 302 303 303 305 308 311 311 309 308 305 301 299 296 288 275 266 260 254 249
283 288 292 295 300 306 310 311 313 317 320 319 317 318 322 323 324 326 328 329 329 326 323 321 318 315 315 317 318 318 318 320 320 318 316 314 312 309 303 296 293 295 298 299 297 295 295 297 295 291 287 283 277 277 280 278 267 261 262 262 258 258 264 275 283 289 294 298 300 301 301 302 304 306 309 309 308 305 302 298 295 291 282 273 268 263 256
286 292 296 298 302 308 310 312 315 318 321 320 318 318 320 322 324 325 327 329 330 329 326 324 323 322 320 318 318 319 320 321 322 320 315 310 309 308 304 299 299 302 303 301 299 296 296 296 294 291 288 283 279 279 281 275 263 258 264 268 262 256 257 266 278 287 292 296 299 300 301 304 306 306 307 308 307 305 303 299 296 293 285 277 271 268 263
288 293 297 299 304 309 311 313 315 319 321 321 318 318 319 321 323 324 326 327 327 326 323 322 324 325 323 319 319 320 321 321 320 318 314 311 310 309 306 303 305 307 306 303 299 297 298 297 294 291 289 286 282 281 281 277 266 257 263 269 266 256 252 261 275 284 289 292 296 298 302 307 312 312 310 309 309 307 304 300 298 295 289 280 272 268 265
290 296 298 300 305 309 311 312 314 319 322 320 317 317 319 321 323 326 327 326 324 321 319 319 322 323 322 321 320 319 320 321 321 319 316 314 313 312 309 307 307 308 307 303 300 301 301 299 296 294 292 287 282 281 283 283 275 264 262 265 261 251 250 262 275 283 287 290 293 299 305 312 316 317 315 313 312 311 307 302 299 296 291 284 277 272 268
292 298 301 303 306 309 310 311 315 319 321 318 316 317 320 322 324 326 325 324 322 319 318 319 320 319 318 319 319 319 321 323 324 323 321 320 319 316 314 312 311 310 308 305 303 303 302 298 295 296 293 288 284 285 287 287 282 272 264 256 248 245 255 268 276 282 287 290 294 301 310 316 319 318 315 314 312 310 307 305 300 297 293 288 282 278 273
295 300 303 305 307 309 310 312 317 320 319 317 317 318 319 320 322 323 323 323 322 320 319 319 318 315 315 319 322 324 326 327 327 326 325 325 324 322 319 315 312 310 309 309 307 305 303 300 295 291 290 290 290 289 288 287 283 275 263 252 249 259 267 273 278 283 288 291 296 303 311 316 317 315 314 314 312 308 305 305 303 299 295 291 284 281 278
297 302 305 306 308 309 310 313 316 318 317 316 316 317 318 320 322 324 325 325 324 321 320 321 319 316 318 322 325 327 329 329 328 328 328 328 327 326 322 317 313 311 311 311 310 307 307 306 300 292 290 291 290 287 286 285 280 271 262 264 271 273 272 275 281 287 291 293 295 302 307 309 309 310 313 314 312 307 304 304 304 301 297 291 284 283 285
299 303 306 307 307 309 312 315 317 317 316 316 316 317 318 320 324 325 326 326 326 325 326 325 323 321 321 324 326 329 330 330 329 329 329 328 329 330 327 322 318 317 315 312 309 307 309 310 306 299 295 293 290 288 288 286 283 281 281 281 277 273 275 281 287 290 293 293 294 298 301 302 303 308 311 312 311 306 303 303 304 302 298 292 285 287 293
301 303 304 306 307 309 312 315 316 317 317 316 316 316 317 320 324 325 325 326 329 331 330 328 325 323 324 326 328 330 331 328 327 329 330 329 329 331 330 327 324 322 319 315 309 305 305 308 306 301 298 294 291 291 290 288 287 289 286 279 273 274 280 288 291 291 291 292 294 298 299 300 303 307 310 311 311 307 303 303 304 301 296 290 282 284 302
301 301 302 304 307 309 313 316 317 317 317 316 316 316 317 319 323 326 327 329 331 332 330 328 326 325 326 328 330 330 330 327 327 328 330 329 329 328 328 326 324 321 319 318 313 306 301 301 299 297 294 292 291 293 292 292 293 291 283 273 270 274 280 286 288 288 291 293 295 298 300 302 305 308 308 310 312 310 304 303 305 300 292 283 263 241 236
300 301 302 306 309 313 316 319 319 318 317 317 317 318 319 321 324 328 330 331 331 331 330 329 327 326 328 330 330 329 328 328 327 328 328 328 327 326 325 324 321 318 315 314 310 304 301 301 299 295 291 289 290 291 291 291 292 286 276 265 258 260 269 280 286 289 292 293 295 298 301 304 307 309 309 311 314 311 305 303 305 300 291 275 250 232 231
299 301 304 308 312 315 318 318 317 318 319 320 320 322 323 323 325 327 329 329 330 330 331 330 328 328 330 331 330 329 328 328 328 328 327 327 327 325 323 321 319 317 314 309 302 296 296 297 296 292 286 284 285 285 283 284 285 279 270 261 255 257 269 283 289 290 290 292 294 299 303 305 307 309 310 313 316 312 305 304 306 303 290 266 242 231 233
300 302 306 311 314 316 318 318 319 321 323 324 324 324 322 321 322 325 327 329 330 331 332 331 331 331 332 331 330 330 330 329 329 328 327 326 325 324 322 320 318 316 313 309 304 299 295 291 288 284 280 278 278 276 273 275 280 278 271 266 266 271 279 286 288 287 289 293 297 300 303 306 308 310 313 316 318 314 307 305 309 306 290 260 239 235 236
302 305 309 313 314 316 319 320 322 324 326 325 325 325 324 323 324 326 328 330 331 332 333 332 333 333 332 331 331 331 330 329 328 327 326 325 324 323 321 319 317 314 311 309 305 301 296 291 286 281 277 275 273 271 268 267 270 272 271 271 274 277 281 283 284 285 288 294 297 299 302 305 308 311 315 320 321 317 310 309 312 309 294 266 243 235 234
307 309 311 312 313 317 321 324 326 329 329 328 327 328 328 326 326 327 328 330 333 334 334 334 334 332 331 330 331 332 331 329 328 327 326 325 324 323 321 318 316 313 310 307 302 298 293 289 285 282 279 275 272 270 268 265 263 265 270 275 278 277 276 277 280 284 288 292 296 299 302 305 307 312 319 324 326 322 315 314 317 315 302 279 249 230 228
311 310 310 311 313 318 322 326 329 331 330 326 327 328 328 326 326 327 329 332 334 334 334 333 333 331 330 331 332 332 331 330 328 328 328 327 325 323 320 318 315 312 308 304 299 295 291 286 282 279 278 276 273 272 271 269 268 268 271 274 273 270 268 270 276 281 285 290 294 298 301 304 307 314 323 330 334 330 323 321 323 322 313 295 262 231 226
310 310 310 311 313 318 323 326 329 330 328 326 326 328 328 327 327 328 331 334 335 334 333 333 333 332 332 332 332 332 332 331 331 331 330 328 325 322 319 317 315 312 307 303 299 294 289 283 278 276 276 276 275 274 273 271 269 268 266 266 266 263 261 264 270 273 277 286 292 294 297 304 311 318 327 336 340 337 332 331 329 325 320 309 280 240 226
309 309 309 311 315 321 326 330 332 333 333 331 330 329 329 328 328 329 332 335 335 334 333 334 333 333 334 334 333 333 333 334 334 333 331 327 324 322 320 317 314 311 306 302 297 291 286 281 277 275 275 274 274 274 271 266 260 256 254 258 262 261 258 257 259 259 266 280 287 288 294 307 316 322 331 340 344 341 340 340 336 328 324 317 294 256 229
309 309 309 313 318 322 328 332 334 335 334 332 331 330 330 330 329 331 334 336 336 335 335 334 333 334 335 335 334 334 335 335 335 333 330 328 325 323 320 317 314 310 306 301 295 288 284 280 278 276 274 272 270 269 264 257 251 247 244 248 254 257 256 252 247 243 253 271 279 281 292 309 319 324 331 340 345 346 346 346 342 334 330 326 308 278 245
Height
5784 5781 5779 5776 5773 5769 5765 5761 5758 5754 5751 5748 5746 5743 5742 5741 5740 5739 5739 5738 5738 5737 5736 5735 5735 5734 5734 5734 5734 5733 5734 5734 5735 5735 5735 5736 5737 5737 5738 5739 5740 5741 5741 5742 5744 5745 5746 5747 5748 5749 5751 5752 5753 5755 5757 5758 5759 5761 5763 5765 5767 5770 5772 5774 5776 5776 5777 5779 5780 5782 5785 5787 5789 5791 5793 5795 5798 5801 5804 5806 5808 5811 5814 5816 5819 5821 5823
5783 5781 5779 5776 5773 5770 5766 5763 5760 5756 5752 5749 5746 5744 5742 5741 5739 5739 5738 5738 5738 5738 5737 5737 5736 5735 5735 5735 5735 5734 5734 5734 5735 5735 5735 5736 5736 5737 5738 5739 5739 5740 5740 5741 5742 5743 5744 5746 5747 5748 5749 5750 5751 5752 5754 5755 5757 5758 5759 5760 5762 5765 5767 5769 5771 5772 5773 5775 5776 5778 5781 5783 5785 5787 5790 5792 5794 5797 5800 5802 5804 5807 5809 5813 5816 5816 5817
5783 5781 5779 5776 5774 5771 5767 5764 5761 5758 5754 5750 5746 5744 5742 5741 5740 5739 5738 5738 5737 5737 5737 5737 5736 5736 5735 5735 5735 5734 5734 5734 5735 5735 5735 5736 5736 5737 5738 5739 5739 5739 5740 5740 5741 5742 5743 5744 5745 5746 5747 5747 5749 5750 5751 5752 5754 5755 5756 5757 5758 5760 5762 5764 5766 5766 5767 5770 5772 5774 5776 5779 5781 5784 5786 5788 5790 5793 5796 5798 5801 5803 5805 5809 5811 5811 5813
5782 5780 5778 5776 5774 5771 5768 5765 5763 5759 5756 5751 5747 5745 5743 5742 5740 5739 5738 5737 5737 5736 5736 5736 5735 5735 5735 5734 5734 5734 5734 5734 5734 5735 5735 5735 5736 5736 5737 5738 5738 5739 5739 5739 5739 5740 5741 5742 5743 5744 5744 5745 5746 5747 5748 5749 5750 5752 5753 5754 5755 5756 5758 5761 5762 5762 5763 5766 5768 5770 5772 5774 5776 5779 5782 5785 5787 5789 5792 5795 5797 5799 5801 5804 5807 5807 5810
5781 5780 5778 5776 5774 5771 5768 5766 5764 5761 5757 5753 5748 5746 5745 5743 5741 5740 5739 5737 5736 5736 5735 5734 5734 5734 5734 5734 5733 5733 5733 5733 5733 5734 5734 5734 5735 5735 5735 5736 5736 5737 5737 5738 5738 5738 5739 5739 5740 5741 5741 5742 5743 5744 5745 5746 5747 5748 5749 5751 5752 5753 5754 5757 5759 5759 5761 5763 5764 5765 5767 5768 5771 5775 5778 5780 5783 5786 5789 5791 5793 5795 5797 5800 5803 5805 5807
5780 5779 5778 5776 5774 5771 5769 5766 5764 5762 5758 5754 5750 5749 5747 5745 5743 5741 5739 5738 5737 5736 5734 5733 5733 5732 5732 5732 5732 5732 5732 5732 5732 5732 5732 5733 5733 5733 5733 5733 5734 5735 5735 5735 5735 5735 5736 5736 5737 5737 5738 5738 5739 5740 5741 5742 5743 5744 5745 5746 5748 5749 5751 5753 5754 5756 5758 5760 5760 5761 5762 5764 5768 5771 5773 5776 5778 5781 5784 5786 5788 5790 5793 5796 5799 5801 5803
5780 5778 5777 5775 5774 5771 5769 5766 5764 5762 5759 5755 5752 5750 5749 5746 5744 5742 5740 5739 5737 5736 5734 5733 5732 5731 5731 5731 5730 5730 5730 5730 5730 5730 5730 5730 5731 5731 5730 5731 5732 5732 5732 5732 5732 5732 5732 5733 5733 5733 5734 5734 5735 5736 5737 5738 5739 5740 5741 5742 5744 5745 5746 5748 5749 5750 5753 5756 5757 5757 5759 5761 5764 5767 5769 5771 5773 5775 5778 5781 5782 5785 5789 5792 5796 5798 5799
5779 5778 5776 5775 5773 5771 5769 5766 5764 5762 5760 5757 5753 5751 5750 5747 5745 5743 5741 5739 5737 5735 5734 5733 5731 5731 5730 5729 5729 5728 5728 5728 5728 5728 5728 5728 5728 5728 5728 5728 5729 5729 5729 5729 5729 5729 5729 5729 5729 5729 5730 5730 5730 5731 5732 5733 5734 5735 5736 5737 5739 5740 5741 5742 5743 5744 5747 5750 5752 5753 5755 5757 5760 5763 5765 5766 5767 5770 5773 5775 5777 5780 5785 5789 5792 5794 5795
5778 5777 5775 5774 5772 5771 5768 5766 5765 5762 5760 5757 5754 5752 5750 5749 5746 5744 5742 5740 5738 5736 5734 5733 5731 5730 5729 5728 5727 5727 5726 5726 5726 5725 5725 5725 5725 5725 5725 5725 5726 5726 5726 5725 5725 5725 5726 5726 5726 5726 5726 5726 5726 5727 5728 5729 5730 5730 5731 5732 5733 5734 5735 5735 5737 5738 5739 5742 5746 5749 5750 5752 5756 5758 5760 5760 5763 5765 5767 5770 5773 5776 5781 5785 5789 5790 5790
5777 5776 5775 5773 5772 5770 5768 5766 5764 5762 5760 5758 5755 5752 5751 5749 5747 5745 5743 5741 5739 5737 5735 5733 5732 5730 5729 5728 5726 5725 5725 5724 5723 5723 5722 5722 5722 5722 5722 5722 5723 5723 5722 5722 5722 5722 5723 5723 5723 5723 5723 5724 5724 5725 5725 5726 5726 5727 5727 5728 5728 5729 5729 5729 5730 5731 5731 5733 5738 5741 5744 5748 5751 5752 5754 5756 5758 5760 5763 5766 5769 5772 5776 5780 5782 5783 5785
5776 5775 5774 5772 5771 5769 5767 5766 5764 5762 5760 5758 5755 5753 5751 5749 5748 5746 5744 5742 5740 5738 5736 5734 5733 5731 5730 5729 5727 5726 5724 5723 5721 5720 5720 5720 5720 5720 5720 5720 5719 5719 5719 5719 5719 5720 5720 5721 5721 5721 5722 5722 5722 5723 5723 5723 5724 5724 5724 5724 5724 5724 5724 5723 5723 5724 5724 5725 5729 5732 5737 5743 5745 5746 5749 5751 5752 5754 5758 5761 5763 5767 5771 5774 5776 5778 5780
5775 5774 5773 5771 5770 5768 5767 5765 5764 5762 5760 5757 5755 5753 5751 5750 5748 5746 5744 5742 5741 5739 5737 5735 5734 5732 5731 5729 5728 5726 5724 5722 5720 5719 5718 5718 5718 5718 5717 5717 5716 5716 5716 5716 5717 5717 5718 5719 5719 5719 5720 5720 5720 5721 5721 5721 5721 5721 5720 5720 5720 5720 5720 5719 5719 5719 5718 5719 5721 5724 5731 5737 5737 5738 5741 5742 5744 5749 5752 5754 5757 5761 5765 5768 5772 5773 5775
5774 5773 5772 5770 5769 5767 5766 5765 5763 5761 5759 5757 5755 5753 5751 5750 5748 5746 5745 5743 5741 5739 5738 5736 5734 5733 5731 5729 5728 5726 5724 5722 5720 5719 5718 5717 5717 5716 5716 5715 5715 5714 5714 5714 5714 5715 5716 5717 5717 5717 5718 5718 5718 5718 5718 5718 5717 5717 5717 5717 5716 5716 5716 5716 5715 5714 5714 5714 5715 5718 5725 5727 5727 5729 5733 5734 5737 5742 5745 5747 5751 5754 5758 5763 5766 5767 5769
5773 5772 5770 5769 5768 5766 5765 5764 5762 5760 5759 5757 5754 5752 5751 5749 5747 5746 5745 5743 5741 5740 5738 5736 5734 5733 5731 5729 5728 5727 5725 5723 5721 5720 5718 5717 5717 5716 5715 5714 5713 5712 5711 5712 5713 5714 5715 5715 5715 5715 5715 5716 5716 5715 5715 5715 5714 5714 5714 5713 5713 5712 5712 5711 5711 5711 5710 5711 5711 5714 5717 5718 5718 5721 5724 5725 5729 5733 5736 5739 5743 5747 5752 5757 5760 5762 5764
5772 5771 5769 5768 5767 5765 5764 5763 5761 5760 5758 5756 5754 5752 5750 5748 5747 5745 5744 5743 5741 5740 5738 5736 5734 5732 5731 5730 5728 5727 5726 5724 5722 5720 5719 5718 5716 5715 5713 5712 5711 5710 5710 5711 5712 5713 5713 5713 5713 5714 5714 5714 5713 5713 5712 5712 5712 5711 5711 5710 5710 5709 5708 5708 5707 5707 5707 5707 5708 5710 5711 5711 5712 5714 5715 5717 5720 5723 5726 5731 5735 5739 5745 5750 5753 5756 5758
5771 5769 5768 5767 5766 5765 5763 5762 5760 5759 5757 5755 5753 5752 5750 5748 5746 5745 5743 5742 5740 5739 5737 5735 5734 5732 5731 5729 5728 5726 5725 5724 5722 5721 5719 5718 5716 5715 5713 5711 5710 5710 5710 5711 5711 5712 5712 5712 5712 5712 5712 5712 5711 5711 5710 5710 5709 5709 5708 5707 5706 5705 5705 5704 5703 5703 5703 5702 5703 5705 5706 5706 5706 5708 5708 5709 5712 5713 5716 5721 5727 5733 5738 5743 5747 5749 5752
5769 5768 5767 5766 5765 5763 5762 5761 5760 5758 5756 5755 5753 5751 5749 5748 5746 5744 5743 5741 5740 5738 5737 5735 5734 5732 5731 5729 5728 5726 5725 5724 5722 5721 5719 5718 5716 5715 5713 5711 5710 5709 5709 5710 5710 5711 5711 5711 5711 5710 5710 5709 5709 5708 5708 5706 5705 5705 5704 5703 5703 5702 5701 5700 5700 5699 5699 5698 5699 5701 5701 5700 5700 5702 5703 5703 5704 5705 5707 5711 5720 5727 5732 5736 5739 5742 5745
5768 5767 5766 5764 5763 5762 5761 5760 5759 5757 5755 5754 5752 5750 5749 5747 5746 5744 5742 5741 5739 5738 5736 5735 5733 5732 5730 5729 5727 5725 5724 5723 5722 5721 5719 5717 5716 5715 5713 5711 5709 5708 5707 5708 5709 5709 5710 5710 5709 5709 5708 5708 5707 5706 5705 5704 5703 5701 5700 5698 5697 5697 5697 5696 5695 5695 5694 5694 5694 5695 5695 5694 5695 5697 5698 5698 5697 5697 5699 5706 5715 5721 5724 5728 5731 5733 5737
5767 5766 5764 5763 5762 5761 5760 5759 5757 5756 5755 5753 5751 5749 5748 5746 5745 5743 5742 5740 5739 5737 5735 5734 5732 5731 5729 5728 5726 5725 5723 5722 5721 5720 5719 5717 5716 5715 5713 5711 5709 5707 5706 5706 5707 5708 5708 5708 5707 5707 5706 5706 5705 5704 5703 5702 5701 5700 5698 5695 5693 5692 5691 5691 5691 5690 5690 5690 5689 5689 5689 5689 5690 5691 5692 5693 5692 5691 5696 5703 5709 5712 5715 5719 5722 5725 5728
5765 5764 5763 5762 5761 5760 5758 5757 5756 5755 5754 5752 5750 5748 5747 5745 5744 5742 5741 5739 5738 5736 5735 5733 5731 5730 5728 5727 5726 5724 5723 5722 5720 5719 5718 5716 5715 5714 5713 5711 5709 5708 5706 5706 5706 5706 5706 5706 5705 5705 5704 5704 5703 5702 5701 5700 5698 5697 5694 5692 5690 5689 5688 5687 5686 5686 5685 5685 5684 5684 5684 5685 5685 5685 5686 5688 5688 5689 5693 5698 5701 5703 5707 5710 5714 5717 5720
5764 5763 5762 5761 5759 5758 5757 5756 5755 5754 5752 5751 5749 5747 5746 5745 5743 5741 5740 5738 5737 5735 5734 5732 5731 5729 5727 5726 5725 5723 5722 5721 5719 5718 5716 5715 5714 5713 5713 5711 5710 5708 5707 5706 5705 5705 5705 5704 5704 5703 5703 5702 5701 5700 5699 5697 5696 5694 5691 5689 5687 5686 5685 5684 5682 5681 5681 5681 5681 5680 5680 5680 5681 5681 5683 5684 5686 5687 5690 5692 5694 5696 5699 5701 5704 5708 5711
5762 5761 5760 5759 5758 5757 5756 5755 5754 5753 5751 5749 5748 5746 5745 5743 5742 5740 5739 5738 5736 5734 5733 5731 5730 5728 5727 5725 5724 5722 5721 5719 5718 5716 5715 5714 5713 5712 5711 5711 5709 5708 5707 5706 5705 5705 5704 5703 5703 5702 5701 5700 5699 5698 5696 5695 5693 5691 5689 5687 5685 5684 5682 5681 5679 5678 5678 5678 5678 5677 5677 5677 5678 5678 5679 5681 5682 5684 5685 5686 5688 5690 5692 5693 5696 5699 5701
5761 5760 5759 5758 5757 5756 5755 5754 5753 5752 5750 5749 5747 5745 5744 5743 5741 5739 5738 5736 5735 5734 5732 5730 5729 5727 5726 5724 5722 5721 5720 5718 5716 5715 5714 5713 5711 5710 5710 5709 5708 5707 5706 5705 5704 5703 5703 5702 5701 5700 5699 5698 5697 5696 5694 5693 5691 5689 5688 5686 5684 5682 5680 5678 5677 5676 5675 5675 5675 5674 5674 5674 5675 5675 5676 5678 5678 5679 5680 5681 5683 5684 5685 5686 5688 5691 5693
5759 5758 5757 5756 5755 5754 5754 5753 5752 5751 5750 5748 5746 5744 5743 5742 5740 5738 5737 5735 5734 5733 5731 5730 5728 5726 5725 5723 5722 5720 5718 5717 5715 5713 5712 5711 5710 5709 5708 5707 5706 5705 5704 5704 5703 5702 5701 5700 5699 5698 5697 5696 5695 5693 5692 5690 5689 5687 5686 5684 5682 5680 5679 5677 5675 5674 5673 5672 5672 5671 5671 5671 5672 5672 5673 5674 5675 5675 5676 5676 5677 5678 5679 5679 5681 5683 5685
5757 5756 5756 5755 5754 5753 5753 5752 5751 5750 5749 5747 5745 5744 5742 5741 5739 5737 5736 5734 5732 5731 5730 5729 5727 5725 5723 5722 5721 5720 5718 5715 5713 5711 5710 5709 5708 5707 5706 5704 5703 5703 5702 5701 5701 5700 5699 5698 5697 5696 5695 5694 5693 5692 5690 5688 5687 5685 5683 5682 5680 5678 5677 5675 5674 5673 5671 5670 5669 5668 5668 5668 5668 5669 5669 5670 5671 5671 5671 5672 5672 5672 5673 5673 5674 5675 5678
5755 5755 5754 5753 5753 5752 5751 5750 5749 5749 5747 5746 5744 5743 5741 5740 5738 5736 5734 5733 5731 5729 5727 5727 5726 5724 5723 5721 5719 5718 5717 5715 5712 5709 5707 5706 5705 5704 5703 5702 5701 5700 5699 5698 5698 5697 5696 5696 5695 5694 5693 5692 5691 5690 5688 5687 5685 5683 5681 5680 5678 5677 5675 5674 5672 5671 5670 5669 5667 5666 5665 5665 5664 5665 5665 5665 5666 5667 5667 5667 5667 5667 5667 5667 5668 5669 5670
5753 5753 5752 5752 5751 5751 5750 5749 5748 5747 5746 5744 5743 5741 5740 5738 5737 5735 5733 5732 5730 5728 5726 5725 5724 5723 5721 5720 5718 5716 5715 5713 5711 5709 5706 5704 5702 5701 5700 5699 5698 5697 5696 5695 5694 5693 5693 5692 5691 5691 5690 5689 5688 5687 5686 5685 5684 5682 5680 5678 5677 5675 5674 5672 5671 5669 5668 5667 5666 5664 5663 5662 5662 5661 5661 5661 5661 5661 5662 5661 5661 5661 5662 5662 5662 5663 5664
5752 5751 5751 5750 5750 5749 5749 5748 5747 5746 5744 5743 5741 5740 5738 5737 5735 5734 5732 5730 5728 5726 5725 5723 5722 5721 5719 5717 5716 5714 5712 5711 5709 5707 5705 5703 5701 5699 5697 5696 5695 5694 5693 5692 5691 5690 5689 5688 5687 5687 5686 5685 5685 5684 5683 5682 5681 5680 5678 5677 5675 5673 5672 5671 5669 5668 5666 5665 5664 5663 5661 5660 5659 5658 5658 5657 5657 5656 5656 5655 5655 5655 5655 5656 5656 5657 5658
5750 5750 5749 5749 5748 5748 5747 5746 5745 5744 5743 5741 5740 5738 5737 5735 5733 5732 5730 5729 5727 5725 5723 5721 5720 5719 5717 5715 5713 5711 5710 5708 5706 5705 5703 5701 5699 5697 5695 5693 5692 5691 5689 5688 5688 5687 5686 5684 5683 5682 5682 5681 5681 5681 5680 5679 5678 5677 5676 5675 5673 5672 5670 5668 5667 5666 5665 5663 5662 5661 5659 5657 5656 5655 5654 5653 5652 5651 5650 5649 5649 5649 5648 5649 5649 5650 5651
5748 5748 5748 5747 5747 5746 5745 5745 5744 5743 5741 5740 5738 5736 5735 5733 5731 5730 5728 5726 5725 5723 5721 5719 5717 5717 5715 5713 5711 5709 5707 5705 5703 5702 5700 5698 5696 5695 5693 5691 5690 5688 5686 5685 5684 5683 5682 5681 5680 5678 5677 5676 5676 5676 5676 5676 5676 5674 5672 5672 5671 5669 5668 5666 5665 5663 5662 5661 5660 5658 5657 5655 5653 5652 5650 5649 5647 5646 5645 5644 5643 5642 5642 5642 5642 5643 5643
5747 5746 5746 5745 5745 5745 5744 5743 5742 5741 5740 5738 5737 5735 5733 5732 5729 5727 5726 5724 5723 5721 5720 5718 5716 5714 5713 5711 5709 5707 5704 5702 5700 5698 5696 5695 5693 5691 5690 5688 5686 5685 5683 5682 5681 5679 5678 5677 5676 5674 5673 5672 5671 5671 5671 5672 5672 5670 5668 5668 5668 5667 5665 5664 5662 5661 5659 5658 5657 5656 5654 5652 5651 5649 5647 5645 5643 5642 5640 5639 5638 5637 5637 5636 5636 5636 5636
5745 5745 5744 5744 5743 5743 5742 5741 5740 5739 5738 5736 5735 5734 5732 5730 5728 5726 5725 5723 5722 5720 5718 5717 5715 5713 5711 5708 5706 5704 5702 5699 5697 5695 5693 5691 5690 5687 5686 5684 5682 5681 5679 5678 5677 5676 5675 5674 5672 5671 5669 5668 5666 5665 5665 5667 5668 5666 5664 5664 5665 5663 5662 5661 5660 5658 5657 5655 5654 5653 5651 5649 5648 5646 5644 5642 5639 5638 5636 5635 5633 5632 5631 5631 5630 5629 5629
5744 5743 5743 5742 5742 5741 5740 5739 5739 5737 5736 5734 5733 5732 5730 5728 5726 5724 5723 5721 5719 5718 5716 5715 5714 5712 5710 5706 5704 5701 5699 5697 5694 5692 5690 5688 5687 5685 5683 5681 5679 5677 5675 5673 5672 5671 5670 5669 5668 5666 5665 5664 5662 5660 5659 5661 5663 5660 5659 5660 5660 5659 5659 5658 5656 5655 5653 5652 5651 5650 5648 5646 5644 5642 5641 5639 5637 5634 5633 5631 5629 5627 5626 5625 5625 5624 5624
5742 5742 5741 5741 5740 5740 5739 5738 5737 5736 5734 5732 5731 5730 5728 5726 5724 5722 5720 5719 5717 5715 5713 5712 5710 5709 5707 5704 5701 5699 5697 5694 5691 5689 5687 5684 5683 5681 5679 5677 5675 5673 5671 5670 5668 5667 5665 5664 5663 5661 5660 5659 5657 5655 5655 5656 5656 5655 5654 5655 5655 5655 5655 5654 5653 5651 5650 5649 5648 5646 5645 5643 5641 5639 5637 5635 5633 5631 5629 5627 5625 5624 5622 5620 5620 5619 5618
5741 5740 5740 5739 5739 5738 5737 5736 5735 5734 5732 5731 5729 5728 5727 5724 5722 5720 5718 5717 5715 5713 5711 5709 5707 5705 5703 5701 5698 5696 5693 5691 5688 5686 5683 5680 5678 5676 5675 5673 5671 5670 5668 5666 5664 5662 5660 5658 5657 5656 5655 5654 5652 5651 5651 5650 5650 5650 5650 5650 5649 5649 5650 5650 5649 5648 5646 5645 5644 5642 5641 5639 5637 5635 5633 5631 5629 5628 5625 5623 5621 5619 5617 5616 5614 5614 5613
5739 5739 5738 5738 5737 5737 5736 5735 5734 5732 5730 5729 5727 5726 5725 5723 5720 5718 5716 5714 5712 5710 5708 5706 5703 5701 5699 5697 5695 5692 5690 5687 5685 5682 5679 5676 5674 5672 5671 5669 5667 5665 5664 5661 5659 5657 5655 5654 5652 5651 5650 5649 5648 5647 5646 5645 5645 5646 5646 5644 5643 5643 5645 5645 5645 5644 5642 5641 5640 5639 5637 5635 5633 5631 5629 5627 5625 5623 5621 5619 5616 5614 5613 5611 5610 5609 5608
5738 5737 5737 5736 5736 5735 5734 5734 5732 5730 5729 5727 5725 5724 5722 5720 5718 5716 5714 5712 5710 5708 5705 5703 5700 5698 5696 5694 5691 5689 5687 5684 5681 5678 5675 5672 5670 5668 5666 5665 5663 5661 5659 5657 5655 5653 5651 5650 5648 5648 5646 5645 5643 5643 5642 5641 5641 5641 5641 5640 5639 5639 5640 5641 5640 5639 5638 5637 5636 5635 5633 5631 5629 5627 5625 5623 5621 5619 5617 5615 5612 5610 5608 5606 5605 5604 5603
5736 5736 5735 5735 5734 5733 5733 5732 5730 5729 5727 5725 5724 5722 5720 5718 5716 5713 5711 5709 5708 5705 5703 5701 5698 5696 5694 5692 5689 5686 5683 5680 5677 5673 5670 5668 5666 5664 5662 5660 5658 5656 5655 5653 5651 5649 5648 5646 5645 5644 5643 5641 5640 5639 5638 5637 5637 5636 5635 5635 5635 5636 5637 5637 5636 5635 5634 5633 5632 5631 5629 5627 5625 5624 5622 5620 5618 5616 5613 5611 5608 5605 5603 5601 5600 5599 5599
5735 5734 5734 5733 5733 5732 5731 5730 5728 5727 5725 5723 5721 5720 5718 5716 5714 5712 5710 5708 5706 5704 5701 5699 5696 5693 5691 5689 5686 5682 5679 5676 5673 5669 5667 5664 5662 5660 5658 5656 5654 5653 5651 5649 5647 5646 5644 5643 5641 5640 5639 5638 5637 5636 5635 5634 5633 5632 5631 5632 5633 5633 5633 5633 5632 5631 5630 5629 5628 5627 5626 5624 5623 5621 5619 5617 5614 5612 5609 5607 5604 5601 5599 5597 5596 5596 5595
5734 5733 5732 5732 5731 5731 5730 5728 5727 5725 5723 5721 5719 5718 5716 5714 5712 5710 5708 5706 5704 5702 5699 5696 5694 5691 5688 5686 5682 5678 5675 5672 5669 5666 5664 5661 5659 5657 5655 5653 5651 5649 5648 5646 5644 5643 5641 5640 5638 5637 5636 5635 5634 5633 5632 5631 5630 5630 5630 5630 5630 5630 5630 5629 5628 5628 5627 5626 5625 5624 5623 5621 5620 5618 5616 5613 5611 5608 5606 5603 5601 5598 5595 5594 5593 5593 5592
5733 5732 5731 5730 5730 5729 5728 5726 5725 5723 5721 5719 5717 5716 5714 5712 5710 5708 5706 5704 5702 5699 5696 5693 5690 5688 5685 5682 5679 5675 5672 5669 5666 5664 5661 5659 5656 5654 5652 5650 5648 5646 5644 5643 5641 5640 5638 5637 5635 5634 5633 5632 5631 5630 5629 5629 5628 5628 5628 5628 5627 5627 5626 5626 5625 5624 5624 5623 5622 5621 5620 5619 5617 5615 5612 5609 5607 5605 5602 5600 5598 5595 5593 5591 5591 5590 5589
5731 5731 5730 5729 5729 5727 5726 5725 5723 5721 5720 5718 5716 5714 5712 5710 5708 5706 5704 5701 5698 5696 5693 5690 5687 5684 5682 5679 5675 5672 5669 5666 5664 5661 5659 5657 5654 5651 5649 5647 5645 5643 5641 5640 5638 5637 5635 5634 5633 5632 5631 5629 5628 5627 5627 5626 5625 5625 5625 5624 5624 5624 5623 5622 5622 5622 5621 5620 5619 5618 5617 5616 5614 5611 5609 5606 5603 5601 5599 5597 5595 5593 5591 5590 5589 5588 5587
5730 5729 5729 5728 5727 5726 5724 5723 5722 5720 5718 5716 5714 5712 5710 5708 5706 5704 5701 5698 5695 5693 5690 5687 5684 5681 5678 5675 5672 5669 5667 5664 5661 5659 5656 5654 5651 5649 5647 5645 5643 5641 5639 5637 5635 5633 5632 5631 5630 5629 5628 5627 5626 5625 5624 5623 5622 5622 5621 5621 5621 5620 5620 5620 5619 5619 5618 5617 5616 5615 5614 5612 5610 5608 5605 5602 5600 5598 5596 5594 5592 5590 5589 5588 5587 5587 5586
5728 5728 5727 5726 5725 5724 5723 5721 5720 5718 5716 5713 5711 5710 5708 5705 5703 5701 5698 5695 5692 5690 5687 5684 5681 5678 5675 5672 5669 5667 5665 5662 5659 5657 5654 5651 5649 5646 5644 5642 5640 5638 5636 5635 5633 5631 5629 5628 5626 5626 5625 5624 5623 5622 5621 5621 5620 5619 5617 5617 5617 5617 5617 5617 5616 5616 5615 5614 5613 5612 5610 5609 5607 5604 5602 5599 5597 5595 5593 5591 5590 5588 5587 5586 5586 5585 5585
5727 5726 5725 5725 5724 5722 5721 5719 5718 5716 5714 5712 5710 5708 5705 5702 5700 5698 5696 5693 5690 5687 5684 5681 5678 5675 5672 5670 5667 5664 5662 5659 5657 5654 5651 5648 5646 5643 5641 5639 5637 5634 5633 5631 5629 5628 5626 5624 5623 5622 5621 5620 5620 5619 5618 5618 5617 5616 5614 5613 5614 5614 5614 5614 5613 5613 5612 5611 5610 5609 5607 5605 5603 5601 5599 5596 5594 5592 5590 5589 5587 5586 5585 5584 5584 5583 5583
5725 5725 5724 5723 5722 5721 5719 5717 5715 5714 5712 5710 5708 5706 5704 5701 5698 5696 5694 5691 5688 5684 5681 5678 5675 5672 5669 5667 5664 5661 5659 5656 5653 5651 5648 5645 5643 5640 5638 5635 5633 5631 5629 5627 5625 5623 5622 5620 5619 5617 5617 5616 5616 5616 5615 5615 5614 5613 5611 5610 5610 5611 5611 5611 5610 5610 5609 5608 5607 5605 5604 5602 5600 5598 5596 5594 5592 5589 5588 5586 5585 5584 5583 5583 5582 5582 5581
5724 5723 5722 5721 5720 5719 5717 5715 5713 5712 5710 5709 5706 5704 5702 5699 5696 5694 5691 5688 5685 5682 5678 5675 5672 5669 5666 5663 5661 5659 5656 5653 5650 5648 5645 5642 5639 5637 5634 5632 5629 5627 5624 5622 5620 5618 5617 5615 5614 5613 5611 5611 5611 5611 5610 5610 5610 5609 5607 5606 5607 5607 5607 5607 5607 5606 5605 5605 5604 5602 5601 5599 5597 5595 5593 5591 5589 5587 5585 5584 5583 5582 5581 5581 5580 5580 5579
5722 5721 5720 5720 5718 5717 5715 5714 5712 5710 5708 5706 5704 5702 5699 5697 5694 5691 5688 5685 5682 5679 5675 5672 5669 5666 5663 5661 5658 5656 5653 5650 5647 5644 5641 5638 5635 5633 5630 5627 5625 5622 5620 5617 5615 5613 5611 5610 5608 5607 5606 5605 5604 5604 5605 5605 5604 5604 5603 5602 5603 5603 5603 5603 5603 5602 5602 5601 5600 5599 5598 5596 5595 5593 5591 5589 5587 5585 5583 5582 5581 5580 5579 5579 5578 5578 5578
5721 5720 5719 5718 5717 5715 5714 5712 5711 5709 5707 5704 5702 5700 5698 5695 5692 5689 5686 5682 5679 5676 5672 5670 5667 5664 5661 5658 5655 5653 5650 5647 5644 5641 5638 5634 5631 5628 5625 5622 5620 5617 5614 5611 5609 5607 5605 5603 5602 5600 5599 5598 5598 5598 5599 5599 5598 5598 5599 5599 5598 5598 5599 5599 5599 5599 5599 5598 5597 5596 5595 5594 5593 5591 5589 5587 5585 5583 5582 5581 5579 5578 5578 5577 5577 5576 5576
5719 5718 5717 5716 5715 5714 5712 5711 5709 5708 5706 5703 5700 5698 5695 5693 5689 5686 5683 5680 5677 5673 5670 5667 5664 5661 5658 5656 5653 5650 5647 5644 5640 5637 5634 5630 5627 5623 5620 5617 5614 5611 5608 5605 5602 5600 5598 5596 5594 5593 5592 5591 5591 5592 5593 5593 5593 5593 5594 5595 5595 5595 5595 5595 5595 5595 5595 5595 5595 5594 5593 5592 5591 5589 5588 5586 5584 5582 5581 5579 5578 5577 5576 5576 5575 5575 5575
5718 5717 5716 5715 5713 5712 5711 5709 5707 5706 5704 5701 5699 5696 5693 5690 5687 5684 5681 5678 5674 5671 5667 5664 5661 5659 5656 5653 5650 5647 5644 5640 5637 5633 5630 5626 5622 5618 5614 5610 5607 5603 5600 5597 5595 5592 5589 5587 5586 5586 5585 5584 5584 5585 5586 5587 5587 5588 5589 5590 5591 5591 5591 5592 5592 5592 5592 5592 5592 5592 5591 5590 5589 5588 5586 5584 5583 5581 5580 5578 5577 5576 5575 5575 5574 5574 5574
5717 5716 5715 5714 5712 5711 5710 5708 5706 5704 5702 5699 5697 5694 5691 5688 5684 5682 5679 5676 5672 5668 5665 5662 5659 5657 5654 5650 5647 5644 5640 5637 5633 5630 5626 5621 5617 5612 5607 5603 5599 5595 5591 5589 5586 5583 5580 5578 5577 5577 5577 5577 5577 5579 5580 5581 5582 5583 5584 5586 5586 5586 5587 5588 5589 5589 5589 5590 5589 5589 5589 5588 5587 5586 5585 5583 5582 5580 5579 5577 5576 5575 5574 5574 5573 5573 5573